When you browse on this site, cookies collect data to enhance your experience and personalize the content and advertising you see.
Visit our Privacy Policy to learn more. By continuing to use the site, you agree to this use of cookies and data.

Stündliche Wetter Ottawa

Heute, 22 September, Dienstag

Zeit Temperatur Niederschläge Wind Luftdruck Luftfeuchtigkeit
00:00 +7°C° 0 mm 1 m/S 762 mmHg 77%
01:00 +6°C° 0 mm 1 m/S 762 mmHg 79%
02:00 +5°C° 0 mm 0 m/S 761 mmHg 81%
03:00 +5°C° 0 mm 0 m/S 761 mmHg 83%
04:00 +4°C° 0 mm 0 m/S 760 mmHg 85%
05:00 +5°C° 0 mm 0 m/S 760 mmHg 82%
06:00 +6°C° 0 mm 0 m/S 760 mmHg 80%
07:00 +6°C° 0 mm 0 m/S 760 mmHg 77%
08:00 +9°C° 0 mm 0 m/S 759 mmHg 70%
09:00 +12°C° 0 mm 0 m/S 759 mmHg 63%
10:00 +14°C° 0 mm 0 m/S 758 mmHg 56%
11:00 +18°C° 0 mm 1 m/S 757 mmHg 53%
12:00 +19°C° 0 mm 1 m/S 756 mmHg 51%
13:00 +20°C° 0 mm 1 m/S 755 mmHg 48%
14:00 +20°C° 0 mm 1 m/S 754 mmHg 50%
15:00 +20°C° 0 mm 1 m/S 753 mmHg 52%
16:00 +20°C° 0 mm 1 m/S 752 mmHg 54%
17:00 +18°C° 0 mm 1 m/S 752 mmHg 62%
18:00 +15°C° 0 mm 1 m/S 752 mmHg 70%
19:00 +12°C° 0 mm 1 m/S 752 mmHg 77%
20:00 +12°C° 0 mm 1 m/S 752 mmHg 79%
21:00 +11°C° 0 mm 1 m/S 751 mmHg 82%
22:00 +11°C° 0 mm 1 m/S 751 mmHg 84%
23:00 +10°C° 0 mm 2 m/S 750 mmHg 86%

Morgen, 23 September, Mittwoch

Zeit Temperatur Niederschläge Wind Luftdruck Luftfeuchtigkeit
00:00 +10°C° 0 mm 2 m/S 750 mmHg 88%
01:00 +9°C° 0 mm 2 m/S 750 mmHg 91%
02:00 +10°C° 0 mm 2 m/S 749 mmHg 92%
03:00 +10°C° 0 mm 2 m/S 749 mmHg 94%
04:00 +10°C° 0 mm 2 m/S 749 mmHg 95%
05:00 +11°C° 0 mm 3 m/S 749 mmHg 95%
06:00 +11°C° 0 mm 3 m/S 749 mmHg 95%
07:00 +11°C° 0 mm 3 m/S 749 mmHg 95%
08:00 +14°C° 0 mm 3 m/S 749 mmHg 88%
09:00 +17°C° 0 mm 3 m/S 749 mmHg 81%
10:00 +19°C° 0 mm 4 m/S 749 mmHg 74%
11:00 +20°C° 0 mm 4 m/S 749 mmHg 70%
12:00 +21°C° 0 mm 4 m/S 749 mmHg 66%
13:00 +22°C° 0 mm 4 m/S 748 mmHg 61%
14:00 +22°C° 0 mm 4 m/S 748 mmHg 63%
15:00 +21°C° 0 mm 4 m/S 748 mmHg 65%
16:00 +21°C° 0 mm 4 m/S 748 mmHg 66%
17:00 +19°C° 0 mm 3 m/S 749 mmHg 72%
18:00 +17°C° 0 mm 3 m/S 749 mmHg 78%
19:00 +15°C° 0 mm 2 m/S 750 mmHg 84%
20:00 +14°C° 0 mm 2 m/S 750 mmHg 86%
21:00 +14°C° 0 mm 1 m/S 750 mmHg 87%
22:00 +13°C° 0 mm 1 m/S 750 mmHg 89%
23:00 +13°C° 0 mm 1 m/S 750 mmHg 90%

übermorgen, 24 September, Donnerstag

Zeit Temperatur Niederschläge Wind Luftdruck Luftfeuchtigkeit
00:00 +13°C° 0 mm 1 m/S 750 mmHg 91%
01:00 +12°C° 0 mm 1 m/S 750 mmHg 91%
02:00 +12°C° 0 mm 1 m/S 750 mmHg 92%
03:00 +12°C° 0 mm 2 m/S 750 mmHg 93%
04:00 +12°C° 0 mm 2 m/S 750 mmHg 94%
05:00 +12°C° 0 mm 2 m/S 750 mmHg 94%
06:00 +13°C° 0 mm 1 m/S 750 mmHg 93%
07:00 +13°C° 0 mm 1 m/S 751 mmHg 92%
08:00 +15°C° 0 mm 1 m/S 751 mmHg 84%
09:00 +18°C° 0 mm 1 m/S 751 mmHg 76%
10:00 +20°C° 0 mm 1 m/S 751 mmHg 68%
11:00 +20°C° 0 mm 2 m/S 751 mmHg 66%
12:00 +20°C° 0 mm 2 m/S 750 mmHg 65%
13:00 +21°C° 0 mm 2 m/S 750 mmHg 63%
14:00 +20°C° 0.1 mm 2 m/S 750 mmHg 71%
15:00 +18°C° 0.1 mm 2 m/S 750 mmHg 79%
16:00 +17°C° 0.1 mm 2 m/S 750 mmHg 88%
17:00 +16°C° 0 mm 2 m/S 751 mmHg 90%
18:00 +15°C° 0 mm 1 m/S 751 mmHg 92%
19:00 +15°C° 0 mm 1 m/S 751 mmHg 95%
20:00 +14°C° 0.2 mm 1 m/S 751 mmHg 94%
21:00 +14°C° 0.2 mm 1 m/S 752 mmHg 94%
22:00 +14°C° 0.2 mm 1 m/S 752 mmHg 94%
23:00 +14°C° 0.1 mm 1 m/S 751 mmHg 93%

25 September, Freitag

Zeit Temperatur Niederschläge Wind Luftdruck Luftfeuchtigkeit
00:00 +14°C° 0.1 mm 1 m/S 751 mmHg 93%
01:00 +13°C° 0.1 mm 1 m/S 751 mmHg 93%
02:00 +13°C° 0.3 mm 1 m/S 751 mmHg 93%
03:00 +13°C° 0.3 mm 1 m/S 751 mmHg 94%
04:00 +13°C° 0.3 mm 2 m/S 751 mmHg 95%
05:00 +13°C° 0 mm 2 m/S 752 mmHg 95%
06:00 +13°C° 0 mm 2 m/S 752 mmHg 95%
07:00 +14°C° 0 mm 2 m/S 752 mmHg 96%
08:00 +14°C° 0 mm 2 m/S 753 mmHg 95%
09:00 +14°C° 0 mm 2 m/S 753 mmHg 93%
10:00 +15°C° 0 mm 2 m/S 753 mmHg 92%
11:00 +15°C° 0 mm 2 m/S 753 mmHg 90%
12:00 +16°C° 0 mm 2 m/S 753 mmHg 87%
13:00 +16°C° 0 mm 2 m/S 753 mmHg 85%
14:00 +17°C° 0 mm 2 m/S 753 mmHg 84%
15:00 +18°C° 0 mm 1 m/S 753 mmHg 83%
16:00 +19°C° 0 mm 1 m/S 753 mmHg 81%
17:00 +18°C° 0 mm 1 m/S 753 mmHg 85%
18:00 +16°C° 0 mm 1 m/S 753 mmHg 90%
19:00 +15°C° 0 mm 1 m/S 754 mmHg 94%
20:00 +14°C° 0 mm 1 m/S 754 mmHg 95%
21:00 +14°C° 0 mm 1 m/S 754 mmHg 95%
22:00 +13°C° 0 mm 1 m/S 754 mmHg 96%
23:00 +13°C° 0 mm 1 m/S 754 mmHg 96%

26 September, Samstag

Zeit Temperatur Niederschläge Wind Luftdruck Luftfeuchtigkeit
00:00 +13°C° 0 mm 1 m/S 754 mmHg 97%
01:00 +13°C° 0 mm 1 m/S 754 mmHg 97%
02:00 +13°C° 0 mm 1 m/S 754 mmHg 97%
03:00 +13°C° 0 mm 1 m/S 754 mmHg 97%
04:00 +14°C° 0 mm 1 m/S 754 mmHg 97%
05:00 +14°C° 0 mm 1 m/S 754 mmHg 97%
06:00 +14°C° 0 mm 2 m/S 754 mmHg 97%
07:00 +15°C° 0 mm 2 m/S 754 mmHg 97%
08:00 +17°C° 0 mm 2 m/S 754 mmHg 90%
09:00 +20°C° 0 mm 3 m/S 754 mmHg 83%
10:00 +22°C° 0 mm 4 m/S 754 mmHg 75%
11:00 +23°C° 0 mm 4 m/S 753 mmHg 68%
12:00 +26°C° 0 mm 5 m/S 753 mmHg 61%
13:00 +27°C° 0 mm 5 m/S 752 mmHg 55%
14:00 +27°C° 0 mm 5 m/S 752 mmHg 57%
15:00 +26°C° 0 mm 4 m/S 751 mmHg 59%
16:00 +26°C° 0 mm 4 m/S 751 mmHg 61%
17:00 +23°C° 0 mm 4 m/S 751 mmHg 66%
18:00 +21°C° 0 mm 3 m/S 751 mmHg 70%
19:00 +19°C° 0 mm 3 m/S 751 mmHg 75%
20:00 +19°C° 0 mm 3 m/S 751 mmHg 76%
21:00 +18°C° 0 mm 3 m/S 751 mmHg 77%
22:00 +18°C° 0 mm 3 m/S 751 mmHg 78%
23:00 +18°C° 0 mm 3 m/S 750 mmHg 80%

27 September, Sonntag

Zeit Temperatur Niederschläge Wind Luftdruck Luftfeuchtigkeit
00:00 +18°C° 0 mm 4 m/S 750 mmHg 82%
01:00 +19°C° 0 mm 4 m/S 749 mmHg 84%
02:00 +19°C° 0 mm 4 m/S 749 mmHg 87%
03:00 +19°C° 0 mm 4 m/S 748 mmHg 90%
04:00 +19°C° 0 mm 4 m/S 748 mmHg 92%
05:00 +19°C° 0.1 mm 4 m/S 748 mmHg 93%
06:00 +19°C° 0.1 mm 4 m/S 748 mmHg 93%
07:00 +19°C° 0.1 mm 4 m/S 748 mmHg 94%
08:00 +20°C° 0.1 mm 4 m/S 747 mmHg 92%
09:00 +20°C° 0.1 mm 4 m/S 747 mmHg 90%
10:00 +21°C° 0.1 mm 4 m/S 746 mmHg 87%
11:00 +22°C° 0.2 mm 5 m/S 746 mmHg 85%
12:00 +22°C° 0.2 mm 5 m/S 745 mmHg 82%
13:00 +23°C° 0.2 mm 6 m/S 745 mmHg 79%
14:00 +21°C° 1.2 mm 5 m/S 744 mmHg 83%
15:00 +19°C° 1.2 mm 5 m/S 744 mmHg 86%
16:00 +16°C° 1.2 mm 5 m/S 744 mmHg 90%
17:00 +15°C° 0.7 mm 4 m/S 744 mmHg 92%
18:00 +16°C° 0.7 mm 3 m/S 745 mmHg 94%
19:00 +15°C° 0.7 mm 2 m/S 745 mmHg 96%
20:00 +15°C° 0 mm 2 m/S 746 mmHg 96%
21:00 +13°C° 0 mm 3 m/S 746 mmHg 96%
22:00 +13°C° 0 mm 3 m/S 746 mmHg 96%
23:00 +12°C° 0 mm 3 m/S 746 mmHg 96%
Mehr zeigen